EGFFEGHI

Guest
Details From EGFF - Cardiff
To EGHI - Southampton
Flight Number -
Tags generated
Created
Modified
Stats Distance 80 nm / 147 km
Max Altitude 4,800 ft / 1,463 m
Waypoints 3
Social Downloads 0
Likes 0
Share VATSIM

Download

Looking for another format? Having issues loading an existing format? Contact us
Advertisement - Login to hide

Notes

Basic altitude profile: - Ascent Rate: 2500ft/min - Ascent Speed: 250kts - Cruise Altitude: 5000ft - Cruise Speed: 420kts - Descent Rate: 1500ft/min - Descent Speed: 250kts Options: - Use NATs: yes - Use PACOTS: yes - Use low airways: yes - Use high airways: yes

Route

EGFF LAMAT EGHI

ID Type Via Altitude (ft/m) Position (lat/lon) Dist (leg/tot) Name
O EGFF APT - 0 / 0 51.39656 / -3.34320 - / 0 nm Cardiff
LAMAT FIX - 4,800 / 1,463 51.30194 / -3.01750 13 / 13 nm
O EGHI APT - 0 / 0 50.95026 / -1.35681 66 / 79 nm Southampton

Altitude Profile

Advertisement - Login to hide

EGFF

Details ICAO EGFF (CWL)
Name Cardiff Int'l
Region United Kingdom
Timezone Europe/London (UTC+1.0)
Stats Elevation 220 ft / 67 m (AMSL)
Location 51.396600° -3.343200°
Runways 1
Magnetic Variation 1.475° W

METAR

EGFF 192050Z AUTO 29007KT 9999 BKN005 OVC010 17/16 Q1021

Decode

TAF

TAF EGFF 191654Z 1918/2018 28008KT 9999 BKN006 TEMPO 1918/2012 3000 -RADZ BR BKN002 PROB40 TEMPO 2012/2018 SCT010

Decode

Departure Runways

ID Width Length Bearing (true/mag) Surface Threshold Overrun Markings Lighting
12 148 ft / 45 m 7,731 ft / 2,356 m 116.83° / 118.31° ASPHALT 715 ft / 218 m 0 ft / 0 m UK-PREC-APP CENTERLINE EDGE THRESHOLD CALVERT REIL-OMNI
30 148 ft / 45 m 7,731 ft / 2,356 m 296.85° / 298.33° ASPHALT 495 ft / 151 m 108 ft / 33 m UK-PREC-APP CENTERLINE EDGE THRESHOLD CALVERT REIL-OMNI

EGHI

Details ICAO EGHI (SOU)
Name Southampton
Region United Kingdom
Timezone Europe/London (UTC+1.0)
Stats Elevation 43 ft / 13 m (AMSL)
Location 50.950300° -1.356800°
Runways 1
Magnetic Variation 0.713° W

METAR

EGHI 192050Z 31008KT 260V340 9999 BKN026 20/16 Q1020

Decode

TAF

Not found

Destination Runways

ID Width Length Bearing (true/mag) Surface Threshold Overrun Markings Lighting
02 117 ft / 36 m 5,649 ft / 1,722 m 19.34° / 20.05° ASPHALT 239 ft / 73 m 66 ft / 20 m UK-PREC-APP CENTERLINE EDGE THRESHOLD MALS
20 117 ft / 36 m 5,649 ft / 1,722 m 199.35° / 200.06° ASPHALT 148 ft / 45 m 0 ft / 0 m UK-PREC-APP CENTERLINE EDGE THRESHOLD MALS

Approach Navaids

Runway Type Ident Frequency Range Bearing (true/mag) Slope Elevation
20 GS ISN 110.75 MHz 10 nm / 19 km 199.35° / 200.06 ° 3.10° 41 ft / 12 m (AMSL)
20 DME ISN 110.75 MHz 18 nm / 33 km - - 54 ft / 16 m (AMSL)
20 LOC-ILS ISN 110.75 MHz 18 nm / 33 km 199.35° / 200.06 ° - 41 ft / 12 m (AMSL)

Popular Alternatives